FW2603 Weather Reports


time (UTC)temp
C
wind
direction
speed
KPH
gust
KPH
rain 1hr
cm
rain 24hr
cm
rain mn
cm
humidity
%
barometer
mb
20260507161557 13 307 1.6 8.0 0.00 0.00 0.00 54 1017.5
20260507160048 13 297 1.6 6.4 0.00 0.00 0.00 54 1017.5
20260507154546 13 203 3.2 4.8 0.00 0.00 0.00 54 1017.6
20260507153043 12 202 1.6 4.8 0.00 0.00 0.00 54 1017.6
20260507151540 12 360 0.0 4.8 0.00 0.00 0.00 53 1017.6
20260507150044 12 360 0.0 0.0 0.00 0.00 0.00 53 1017.5
20260507144539 12 201 0.0 0.0 0.00 0.00 0.00 54 1017.3
20260507143040 11 202 1.6 3.2 0.00 0.00 0.00 53 1017.3
20260507141535 11 202 0.0 1.6 0.00 0.00 0.00 53 1017.0
20260507140035 11 202 0.0 3.2 0.00 0.00 0.00 52 1016.9
20260507134531 11 202 0.0 0.0 0.00 0.00 0.00 52 1016.9
20260507133030 11 202 0.0 3.2 0.00 0.00 0.00 52 1016.7
20260507131526 11 202 0.0 6.4 0.00 0.00 0.00 52 1016.8
20260507130028 11 202 4.8 9.7 0.00 0.00 0.00 52 1016.6
20260507124534 11 207 3.2 6.4 0.00 0.00 0.00 51 1016.5
20260507123024 11 207 3.2 8.0 0.00 0.00 0.00 51 1016.4
20260507121522 11 252 3.2 4.8 0.00 0.00 0.00 50 1016.4
20260507120019 11 360 0.0 1.6 0.00 0.00 0.00 49 1016.5
20260507114518 11 253 0.0 4.8 0.00 0.00 0.00 49 1016.5
20260507113036 12 254 0.0 0.0 0.00 0.00 0.00 48 1016.4
20260507111518 12 254 0.0 3.2 0.00 0.00 0.00 47 1016.6
20260507110017 12 254 0.0 4.8 0.00 0.00 0.00 44 1016.8
20260507104515 11 254 1.6 4.8 0.00 0.00 0.00 40 1016.6
20260507103017 12 254 0.0 0.0 0.00 0.00 0.00 38 1017.0
20260507101516 12 254 0.0 0.0 0.00 0.00 0.00 36 1017.0
20260507100012 12 254 0.0 0.0 0.00 0.00 0.00 34 1017.1
20260507094507 12 254 0.0 0.0 0.00 0.00 0.00 34 1017.3
20260507093005 12 254 0.0 0.0 0.00 0.00 0.00 36 1017.4
20260507091504 12 254 0.0 0.0 0.00 0.00 0.00 42 1017.4
20260507090001 12 254 0.0 0.0 0.00 0.00 0.00 43 1017.6
20260507084611 12 254 0.0 0.0 0.00 0.00 0.00 42 1017.7
20260507083059 12 254 0.0 0.0 0.00 0.00 0.00 42 1017.8
20260507081601 12 254 0.0 0.0 0.00 0.00 0.00 42 1017.9
20260507080054 12 254 0.0 0.0 0.00 0.00 0.00 43 1018.1
20260507074558 12 254 0.0 0.0 0.00 0.00 0.00 46 1018.2
20260507073054 12 254 0.0 0.0 0.00 0.00 0.00 45 1018.2
20260507071550 12 254 0.0 0.0 0.00 0.00 0.00 43 1018.3
20260507070048 12 254 0.0 1.6 0.00 0.00 0.00 42 1018.3
20260507064550 12 254 0.0 1.6 0.00 0.00 0.00 38 1018.3
20260507063047 12 254 1.6 6.4 0.00 0.00 0.00 39 1018.4
20260507061547 12 254 3.2 8.0 0.00 0.00 0.00 38 1018.2
20260507060045 12 254 4.8 11.3 0.00 0.00 0.00 36 1018.4
20260507054545 12 254 6.4 11.3 0.00 0.00 0.00 36 1018.2
20260507053046 12 254 4.8 11.3 0.00 0.00 0.00 33 1018.2
20260507051544 12 253 6.4 12.9 0.00 0.00 0.00 40 1018.3
20260507050044 12 253 8.0 12.9 0.00 0.00 0.00 42 1018.3
20260507044555 12 360 3.2 9.7 0.00 0.00 0.00 42 1018.2
20260507043056 12 360 4.8 11.3 0.00 0.00 0.00 39 1018.1
20260507041542 12 360 4.8 9.7 0.00 0.00 0.00 34 1018.1
20260507040042 12 360 4.8 9.7 0.00 0.00 0.00 31 1018.0
20260507034542 13 360 4.8 9.7 0.00 0.00 0.00 34 1017.9
20260507033040 13 360 4.8 8.0 0.00 0.00 0.00 43 1017.8
20260507031545 13 360 4.8 8.0 0.00 0.00 0.00 53 1017.7
20260507030038 13 360 6.4 8.0 0.00 0.00 0.00 54 1017.6
20260507024539 13 360 6.4 9.7 0.00 0.00 0.00 53 1017.5
20260507023037 14 248 8.0 12.9 0.00 0.00 0.00 52 1017.3
20260507021539 15 248 6.4 14.5 0.00 0.00 0.00 50 1017.3
20260507020048 16 252 8.0 19.3 0.00 0.00 0.00 49 1017.1
20260507014537 16 360 8.0 17.7 0.00 0.00 0.00 46 1017.3
20260507013034 16 360 9.7 17.7 0.00 0.00 0.00 46 1017.3
20260507011543 17 360 6.4 17.7 0.00 0.00 0.00 47 1017.2
20260507010036 17 360 9.7 17.7 0.00 0.00 0.00 47 1017.2
20260507004533 17 360 8.0 17.7 0.00 0.00 0.00 46 1017.1
20260507003032 18 360 9.7 22.5 0.00 0.00 0.00 46 1016.9
20260507001603 17 360 12.9 20.9 0.00 0.00 0.00 43 1016.8
20260507000040 18 360 9.7 20.9 0.00 0.00 0.00 43 1016.8
20260506234531 18 360 11.3 19.3 0.00 0.00 0.00 42 1016.7
20260506233029 18 360 12.9 25.7 0.00 0.00 0.00 44 1016.8
20260506231528 17 360 11.3 22.5 0.00 0.00 0.00 44 1017.0
20260506230043 18 360 16.1 24.1 0.00 0.00 0.00 43 1017.1
20260506224526 18 360 9.7 20.9 0.00 0.00 0.00 44 1017.1
20260506223030 18 360 12.9 20.9 0.00 0.00 0.00 44 1017.1
20260506221524 18 360 12.9 20.9 0.00 0.00 0.00 44 1017.2
20260506220023 18 360 12.9 25.7 0.00 0.00 0.00 45 1017.3
20260506214521 18 360 11.3 24.1 0.00 0.00 0.00 44 1017.4
20260506213021 18 360 12.9 30.6 0.00 0.00 0.00 43 1017.5
20260506211522 18 360 16.1 25.7 0.00 0.00 0.00 42 1018.2
20260506210038 18 360 14.5 27.4 0.00 0.00 0.00 42 1017.4
20260506204517 18 360 11.3 27.4 0.00 0.00 0.00 43 1017.7
20260506203014 18 360 9.7 22.5 0.00 0.00 0.00 43 1017.8
20260506201519 19 360 11.3 24.1 0.00 0.00 0.00 42 1017.9
20260506200010 19 360 8.0 20.9 0.00 0.00 0.00 42 1018.1
20260506194509 18 360 9.7 22.5 0.00 0.00 0.00 42 1018.4
20260506193011 18 360 8.0 20.9 0.00 0.00 0.00 42 1018.6
20260506191510 18 360 8.0 16.1 0.00 0.00 0.00 41 1018.7
20260506190002 18 360 3.2 17.7 0.00 0.00 0.00 42 1018.8
20260506184559 18 360 4.8 17.7 0.00 0.00 0.00 42 1018.8
20260506183104 17 360 12.9 20.9 0.00 0.00 0.00 41 1019.1
20260506181555 17 360 9.7 19.3 0.00 0.00 0.00 43 1019.1
20260506180050 16 360 9.7 20.9 0.00 0.00 0.00 42 1019.3
20260506174544 16 360 9.7 17.7 0.00 0.00 0.00 41 1019.3
20260506173045 16 360 6.4 17.7 0.00 0.00 0.00 43 1019.5
20260506171538 15 360 3.2 14.5 0.00 0.00 0.00 45 1019.7
20260506170043 15 360 9.7 16.1 0.00 0.00 0.00 45 1019.7
20260506164546 15 360 4.8 12.9 0.00 0.00 0.00 44 1019.6
20260506163029 14 360 6.4 12.9 0.00 0.00 0.00 46 1019.6